sat.trackr.live / text

‹ back to catalog

STARLINK-6313

NORAD 56519 · 2023-065S

PAYLOAD ACTIVE UNKNOWN

§ Identity

Operator
Country
US
Launch date
2023-05-14
Launch site
AFETR
Launch vehicle
Mass (kg)
RCS (m²)

Purposes: comms

External: N2YO · Heavens-Above · Gunter

§ Orbital elements

Epoch: 2026-09-20T17:04:46.432992Z

Period
94.27 min
Inclination
43.0041°
Eccentricity
0.0001206
Mean motion
15.27574038 rev/d
Perigee alt
482.2 km
Apogee alt
483.9 km
Semi-major
6,861.2 km
B*
-3.4269e-7
RAAN
191.2772°
Arg perigee
263.2391°
Mean anomaly
96.8324°
Rev number
18,642

§ Raw data

STARLINK-63131 56519U 23065S   26263.71164853 -.00000272  00000+0 -34269-6 0  99982 56519  43.0041 191.2772 0001206 263.2391  96.8324 15.27574038186429

JSON: /api/v1/satellites/56519 · /tle

For live sub-satellite position, see the globe view (requires WebGL).

§ Visibility from observer

Set your observer location to see the next 7 days of passes ≥ 10°. The values pass through the URL so the page stays shareable.

No JS? Fill the form by hand. The geolocation button needs JavaScript.